Wind_Speed
22 20 18 18 17 17 16 16 15 15 15 17 18 20 21 22 21 20 20 19 19 20 19 18 18 18 18 17 18 18 18 17 16 16 17 17 16 15 14 14 14 14 13 12 11 10 9 11 13 13 12 11 11 11 11 10 10 9 8 6 6 7 7
23 20 18 18 17 16 16 17 17 17 16 16 17 18 19 19 20 19 19 19 19 20 19 19 19 19 19 19 19 18 18 18 17 17 17 17 17 17 16 15 14 15 15 14 12 10 10 11 13 14 13 12 12 13 12 11 11 10 8 6 6 6 7
23 20 18 17 15 14 15 16 17 18 17 17 17 17 17 17 17 17 18 18 19 19 18 18 19 19 19 19 19 19 19 18 17 17 17 18 19 19 18 17 16 16 16 15 13 12 12 13 14 15 14 13 13 14 14 12 12 11 9 7 6 6 6
22 19 18 17 15 15 16 17 18 19 20 20 19 18 17 17 17 18 18 18 19 19 18 18 19 20 20 20 20 20 19 19 18 17 18 19 20 20 20 19 18 17 17 17 16 14 14 14 15 15 15 14 14 15 15 14 13 13 10 8 6 5 5
22 20 19 18 17 17 17 18 18 18 20 21 21 21 20 20 20 19 19 19 19 19 19 19 20 20 21 20 20 20 20 20 19 18 19 19 20 21 20 20 20 19 19 19 18 16 15 16 16 17 16 15 15 16 16 15 14 14 12 9 7 5 5
24 22 20 19 18 18 18 18 18 18 19 20 21 22 22 23 22 20 20 20 20 20 19 19 19 20 21 20 20 20 20 20 20 20 20 20 21 20 20 22 22 22 21 20 19 18 17 18 18 18 17 16 16 17 17 16 15 15 13 10 8 6 6
26 23 21 21 21 19 18 17 18 19 20 21 22 23 24 25 24 23 23 22 22 21 20 19 19 20 21 21 21 21 21 21 20 21 21 21 21 21 21 22 22 23 23 21 20 19 19 19 20 19 18 16 17 18 17 16 16 16 14 12 9 7 7
26 23 21 23 23 21 19 17 18 19 21 23 25 26 26 25 25 25 24 23 23 22 20 20 19 20 21 21 21 20 21 21 21 22 22 22 22 22 22 23 23 24 24 22 21 21 20 21 21 21 19 17 18 19 18 17 17 17 16 13 11 9 7
26 23 23 24 25 24 22 21 22 23 24 25 27 27 27 27 26 25 24 24 24 22 20 20 20 21 21 21 20 20 21 21 21 22 23 24 24 23 24 24 25 25 25 24 23 23 23 23 24 22 20 18 20 20 19 18 17 18 17 15 12 10 8
26 24 25 27 28 27 26 25 26 27 28 28 29 29 29 28 27 27 26 25 23 21 21 21 21 21 21 20 20 20 20 19 20 21 22 23 25 25 25 25 25 26 25 25 25 24 24 25 25 23 20 19 21 21 20 19 18 19 18 17 14 12 10
28 27 29 30 29 28 27 27 27 29 30 29 29 29 29 28 27 27 26 25 22 21 21 21 21 21 21 20 20 19 18 18 19 20 21 22 23 24 25 25 25 25 26 25 25 25 25 26 25 22 19 19 21 22 21 20 19 20 20 18 16 14 12
31 31 32 32 31 29 28 27 28 29 30 30 29 28 28 27 26 26 25 24 22 22 21 21 21 21 20 20 19 17 16 16 17 17 18 19 20 20 21 22 22 23 24 25 25 25 25 24 22 20 19 20 23 24 23 21 20 20 21 20 18 16 15
34 34 35 36 34 32 30 28 28 29 31 30 27 26 26 27 26 25 24 23 22 22 22 22 21 21 20 20 19 17 15 14 14 14 15 16 17 17 18 18 19 20 21 22 22 21 21 21 19 19 19 20 23 24 24 22 21 21 22 21 19 18 17
36 36 38 38 37 35 32 29 28 30 32 30 26 24 25 26 26 27 25 24 23 23 22 22 22 21 20 20 19 17 14 13 12 12 12 12 11 11 12 13 14 15 16 17 17 17 17 18 18 18 19 20 22 24 25 23 22 22 22 22 21 21 20
37 37 39 40 39 38 35 32 30 30 32 31 28 25 24 24 25 27 26 25 24 24 24 23 22 21 20 20 19 17 15 13 11 10 9 8 6 6 6 6 7 8 10 12 14 15 16 16 17 18 19 20 21 23 24 24 22 22 23 24 24 23 22
36 37 38 39 40 39 37 35 32 31 32 33 30 27 25 24 24 25 25 24 25 25 24 23 21 19 18 17 16 17 16 14 12 10 9 6 5 5 4 4 4 4 5 7 10 13 15 16 17 18 19 19 20 22 23 24 23 23 24 25 26 26 25
34 35 35 37 39 40 39 36 32 31 32 32 27 24 24 24 23 23 23 24 25 24 23 21 19 18 16 14 15 17 16 14 12 11 9 7 7 7 7 8 8 7 6 6 7 9 12 15 16 18 19 19 20 22 23 24 24 25 26 27 28 29 28
30 32 33 35 39 41 40 36 32 31 32 30 24 21 21 21 22 23 23 23 23 22 21 21 19 18 16 14 16 17 16 15 14 13 11 10 10 10 11 12 12 11 9 9 9 10 10 11 13 15 18 19 21 23 23 24 26 27 27 28 29 30 30
28 29 31 35 39 41 40 37 33 31 31 30 25 21 20 21 22 23 22 22 21 22 22 21 19 18 17 16 17 17 16 16 16 15 14 13 14 15 16 16 15 14 14 13 14 13 11 10 12 13 15 17 19 21 23 24 26 28 29 29 30 31 32
28 29 31 34 37 39 39 38 35 32 31 30 27 23 22 23 24 23 23 23 24 24 24 23 22 21 19 18 18 18 19 19 18 17 17 18 19 20 20 19 18 18 18 18 18 17 14 14 15 15 15 16 17 19 21 23 25 28 29 30 31 32 33
30 30 31 33 34 35 36 37 35 34 32 31 29 26 25 25 25 24 25 26 27 27 26 25 25 24 23 22 21 21 21 21 20 20 20 21 23 23 23 23 23 22 23 23 22 21 20 20 19 18 18 18 18 19 19 21 24 27 29 31 32 33 35
31 30 31 31 32 31 33 34 35 35 33 31 30 28 26 26 27 26 26 27 27 27 27 26 25 24 24 23 23 24 24 24 24 23 23 24 25 26 27 27 26 26 26 26 26 25 25 24 23 22 22 22 22 22 22 23 24 25 28 30 33 35 36
33 31 30 30 30 30 31 33 34 35 34 32 31 30 29 29 29 27 26 27 27 27 27 25 24 25 25 26 26 26 26 27 27 26 26 27 27 27 28 28 28 28 29 29 29 29 28 28 27 27 28 28 27 26 26 27 27 27 28 30 33 36 37
34 33 31 30 30 30 30 32 34 35 34 34 33 32 32 32 32 30 29 29 28 28 28 27 26 26 27 28 27 27 27 27 28 29 30 30 29 29 28 29 30 30 31 31 31 31 31 31 31 31 31 32 31 30 31 31 32 31 31 32 34 36 37
36 35 32 31 30 30 30 32 34 36 36 35 34 33 33 33 34 33 31 30 30 31 31 30 28 27 26 27 28 29 30 30 31 32 33 32 31 30 30 31 32 32 33 34 34 33 34 34 34 34 34 34 34 34 35 35 35 35 35 36 37 38 39
35 36 34 32 31 30 30 32 34 37 38 37 36 35 34 34 35 34 32 30 30 31 30 30 29 28 28 29 30 31 33 35 37 35 34 33 33 33 33 33 34 35 36 36 36 36 36 36 36 36 36 36 37 38 38 38 39 38 38 40 41 41 41
34 36 35 33 32 31 31 32 34 36 38 39 39 38 38 37 35 34 33 32 32 33 32 32 31 31 31 31 30 30 32 35 38 36 32 32 34 35 35 35 36 38 40 40 39 39 39 37 36 35 36 38 40 41 41 41 42 41 40 42 43 45 46
34 35 35 34 33 33 33 34 35 35 37 39 40 41 41 40 38 36 36 36 36 36 35 33 33 32 31 31 31 31 32 33 33 32 31 31 33 35 36 37 39 40 41 42 42 42 41 39 38 37 38 40 43 44 44 45 45 44 43 44 45 48 49
35 35 35 35 35 35 35 35 35 35 36 38 40 40 41 41 40 40 39 39 39 38 36 34 34 33 33 33 33 34 35 34 32 32 32 32 34 35 37 38 40 41 42 43 44 44 42 41 42 42 43 43 44 45 47 48 48 46 46 46 47 50 53
36 35 35 35 36 37 37 37 37 36 36 37 38 38 38 39 39 39 40 40 40 38 36 36 36 35 35 35 35 36 36 36 35 35 35 36 37 39 40 41 42 44 45 46 46 46 45 44 45 46 46 46 47 47 47 49 48 48 48 49 49 51 55
37 36 35 36 37 38 39 38 38 38 38 38 37 37 37 36 35 35 36 37 37 37 36 36 37 37 37 37 38 38 38 38 38 39 39 41 42 43 44 45 46 46 47 48 49 49 48 48 49 49 48 49 50 50 49 49 48 48 50 50 49 51 54
38 36 36 36 37 38 40 41 40 40 39 39 38 37 37 36 35 35 35 36 37 37 38 38 39 39 39 39 39 39 39 40 40 41 43 44 45 47 47 47 47 47 47 49 50 50 50 51 51 51 52 52 53 54 55 55 53 51 51 51 52 54 55
37 37 37 37 37 38 40 43 43 42 42 41 40 40 39 39 39 39 39 39 40 40 41 41 42 42 42 41 40 41 41 41 42 43 43 44 45 46 46 47 47 48 48 49 50 51 52 53 53 54 55 56 56 56 59 61 59 56 54 54 55 56 58
38 37 37 38 38 38 39 42 44 45 45 44 44 43 43 43 43 42 42 43 43 44 44 44 45 45 45 44 43 43 43 43 43 43 43 44 44 45 46 47 49 51 52 52 53 54 54 55 56 57 58 59 60 60 62 64 64 61 58 58 58 59 61
39 38 38 38 38 38 37 38 41 44 45 46 46 46 46 46 46 46 46 46 46 47 48 48 48 47 46 44 43 43 43 43 44 44 45 46 47 48 50 51 53 55 55 55 56 57 58 59 60 60 61 63 64 64 65 66 66 64 61 60 61 64 65
39 39 39 39 38 37 37 36 37 40 42 44 45 45 46 46 46 46 47 47 47 47 48 47 46 44 43 42 42 43 44 45 46 48 49 50 51 52 54 55 57 58 57 56 57 59 60 61 61 62 64 68 69 69 69 69 68 68 67 65 65 67 70
40 39 40 40 39 37 36 36 37 37 38 39 40 40 41 41 42 42 42 43 43 43 43 43 43 43 43 44 44 46 47 48 50 51 51 52 53 54 56 57 57 58 58 57 56 57 59 60 61 64 68 71 72 73 73 72 71 70 70 70 68 68 70
40 39 39 40 39 38 37 37 37 37 38 39 39 39 40 40 41 41 41 42 42 42 43 44 44 45 46 47 48 49 49 50 52 52 51 52 53 54 56 56 55 56 56 56 56 57 59 61 63 66 69 72 75 77 78 78 76 74 73 72 72 72 72
Wind_Direction
198 198 196 194 196 194 186 189 202 209 206 202 203 205 203 202 202 202 203 203 204 206 205 205 208 211 214 218 219 220 220 220 218 217 218 222 225 229 230 228 230 236 242 246 249 259 274 287 297 302 300 285 263 251 252 256 261 267 271 288 313 328 338
206 204 202 203 205 202 196 193 197 204 207 205 206 209 208 207 205 203 205 206 207 208 207 207 210 213 217 220 222 223 224 224 224 222 224 226 230 234 236 234 233 236 242 247 253 260 268 275 288 298 297 285 263 252 254 256 260 264 268 283 306 324 337
210 210 207 208 210 211 211 206 200 201 206 208 209 212 213 212 210 206 207 208 211 212 210 209 211 214 218 221 225 227 228 229 228 228 230 232 233 235 238 240 238 238 244 251 254 256 260 268 281 291 293 282 261 253 256 257 259 262 264 277 298 318 333
213 212 208 204 205 213 220 219 211 204 205 207 209 212 215 216 214 212 211 212 216 218 217 217 217 217 220 222 226 229 231 233 232 231 232 234 236 237 240 243 244 242 244 248 251 254 259 266 276 283 286 276 258 253 258 259 259 261 263 273 290 311 330
213 209 202 198 200 212 225 230 225 216 211 210 210 212 216 219 219 218 219 219 221 224 224 225 226 228 229 229 230 232 234 236 236 235 235 236 239 241 242 244 246 245 243 245 249 253 257 262 270 277 279 271 255 252 258 260 258 259 262 270 281 301 322
211 208 200 195 198 209 223 233 235 229 221 216 215 216 218 221 222 223 227 228 229 230 230 231 234 236 237 236 236 238 240 242 243 242 240 240 241 243 244 245 246 247 247 247 249 252 256 261 267 273 274 266 253 249 255 258 257 257 262 268 276 295 312
210 209 201 196 198 206 219 232 238 235 228 221 217 217 219 222 222 223 227 230 233 236 237 238 240 241 242 242 241 242 243 245 246 246 246 245 245 245 245 246 247 249 249 250 251 254 257 260 264 268 268 261 250 246 251 256 255 254 259 265 273 288 301
203 203 200 198 198 202 212 226 236 236 231 225 219 219 221 223 224 225 227 229 233 237 240 242 243 244 244 244 244 244 245 246 246 247 248 248 248 247 248 248 249 250 251 252 252 254 257 259 262 265 263 255 246 243 247 253 253 252 255 261 268 280 290
195 196 196 196 196 199 204 215 228 231 228 225 221 220 222 224 227 229 230 231 233 236 240 242 240 240 240 241 243 244 244 245 246 246 247 247 246 246 247 248 250 251 254 255 255 256 258 259 262 264 260 251 244 241 245 250 251 249 252 256 262 273 282
195 196 194 195 197 200 203 210 222 228 225 223 222 221 221 223 226 230 231 232 233 235 239 240 237 234 235 237 239 241 243 244 246 246 247 247 246 245 245 246 248 251 254 256 257 259 259 261 264 264 256 247 242 241 244 249 250 248 249 252 257 267 276
199 198 196 198 200 203 206 212 223 230 230 226 224 224 224 224 225 228 231 233 233 235 237 236 234 232 232 233 235 239 244 246 246 246 246 245 245 245 246 246 247 250 253 255 257 259 260 261 263 260 251 242 239 240 243 248 250 248 247 250 254 262 272
202 200 199 200 202 205 210 216 223 233 236 232 227 227 227 227 226 226 229 231 231 232 233 232 231 230 230 231 234 240 245 245 245 243 241 241 241 242 244 246 247 249 253 256 258 260 261 261 259 253 244 238 237 240 244 250 253 250 248 249 252 258 267
203 202 200 201 204 207 212 219 225 233 238 237 233 231 230 228 227 226 227 229 229 230 230 229 228 229 230 232 236 240 241 241 240 239 237 237 239 241 244 247 248 250 252 256 258 259 259 258 254 248 241 236 236 240 246 253 256 253 249 249 251 255 263
204 202 200 202 205 208 213 219 225 231 238 242 242 240 236 232 229 227 227 227 227 226 225 225 226 228 231 237 240 238 235 235 235 233 233 233 234 237 241 244 248 250 251 253 255 256 256 255 251 246 242 239 238 241 248 256 261 258 253 252 253 254 259
210 205 201 202 205 210 215 220 224 229 237 243 245 246 246 241 235 233 230 228 227 224 222 222 224 227 234 240 240 234 230 231 232 230 228 226 225 227 231 237 245 250 253 254 254 253 251 251 250 247 245 245 244 245 251 260 265 262 256 254 256 256 256
216 213 207 203 205 211 217 220 223 228 235 240 243 246 251 250 244 239 234 231 229 225 222 223 224 229 236 240 235 231 231 233 233 234 234 234 242 249 257 268 271 270 270 268 262 257 254 252 251 251 250 250 249 249 254 262 267 264 258 255 257 258 257
219 220 216 209 206 210 216 219 223 229 237 241 243 246 252 252 247 241 234 229 227 223 221 223 224 227 230 230 229 230 236 239 239 241 244 249 261 271 280 283 282 283 282 278 277 271 264 259 257 255 254 254 253 253 256 262 265 264 259 255 257 259 260
224 222 219 214 210 212 215 217 221 229 238 243 243 245 250 249 243 239 232 226 224 222 222 223 224 226 227 226 229 233 239 242 243 247 251 257 264 271 276 277 279 283 282 280 282 280 275 271 267 264 261 259 259 258 259 260 262 263 261 258 258 261 262
228 225 221 217 214 215 217 217 219 228 236 240 241 244 247 242 235 233 230 226 224 224 226 227 227 228 227 227 229 234 240 243 246 249 254 260 263 265 268 272 277 280 280 278 277 275 275 277 277 275 272 269 266 264 262 260 259 261 261 260 261 263 264
228 228 226 222 219 218 218 217 219 226 234 239 240 241 241 234 227 224 224 224 226 226 226 226 227 226 226 226 228 232 237 241 245 251 256 259 261 263 266 269 272 275 275 274 273 274 276 278 279 279 279 277 275 272 267 262 259 259 261 262 262 264 265
229 227 228 228 226 222 219 217 219 225 233 238 238 237 236 231 224 222 223 225 227 228 228 228 227 225 223 223 226 231 235 239 242 246 252 256 259 261 265 267 268 270 271 272 272 274 274 275 277 280 281 281 281 278 275 270 265 262 262 263 264 265 266
232 228 227 229 230 226 219 215 217 224 230 234 235 234 232 229 226 226 227 230 232 234 235 236 235 234 231 228 227 230 236 239 240 242 246 250 254 257 261 264 265 265 266 267 269 270 271 272 275 278 279 280 279 278 278 278 275 271 267 266 265 266 267
236 232 229 229 228 225 220 215 216 222 226 228 231 233 231 230 232 233 234 236 238 239 239 239 238 236 236 233 230 230 235 239 241 242 244 246 249 252 256 258 260 260 261 263 264 266 268 270 271 271 271 273 275 277 278 277 278 277 275 272 269 268 269
240 237 233 230 226 222 219 216 215 219 224 224 227 232 233 232 235 239 241 244 247 250 251 250 247 244 243 242 238 236 237 239 242 243 244 246 246 247 249 252 255 257 259 260 261 262 264 265 266 266 266 267 269 272 274 275 276 277 276 275 274 273 273
241 240 236 232 228 221 217 215 215 218 222 225 228 231 232 232 235 240 245 251 257 259 260 261 261 258 255 254 250 243 237 236 239 242 244 244 244 244 246 248 251 253 255 256 257 259 260 260 260 260 261 262 264 264 266 269 271 274 274 274 275 275 276
239 241 238 234 232 226 219 216 217 219 222 226 231 233 233 234 237 242 246 251 255 257 259 261 261 258 253 252 251 248 242 238 238 242 246 246 245 246 247 250 253 256 257 259 261 262 263 264 263 261 258 259 260 260 261 263 265 268 270 271 272 273 274
236 239 239 237 234 230 225 221 220 221 223 226 231 235 237 239 242 244 246 247 249 251 252 252 251 251 251 251 251 252 252 247 243 246 251 252 250 252 254 256 258 260 262 264 266 265 265 268 270 267 262 259 258 258 259 260 261 263 265 267 269 270 270
234 237 239 239 236 232 229 226 224 225 226 227 230 234 237 240 243 244 246 247 246 248 248 246 243 245 251 254 255 257 261 260 257 258 262 262 260 261 263 263 263 264 265 267 267 266 266 268 269 269 265 261 260 260 260 260 260 262 262 263 265 266 267
234 236 239 239 237 234 231 229 227 227 229 231 233 234 236 239 241 243 245 245 245 245 244 242 242 245 250 256 259 262 266 268 268 269 270 269 268 268 268 268 268 268 269 269 270 270 270 268 266 265 264 262 261 260 260 261 261 261 261 261 262 264 264
234 236 238 239 237 234 232 230 228 228 231 234 237 237 238 239 240 241 241 241 241 242 242 241 244 247 251 256 260 264 267 270 271 272 273 273 272 272 272 273 273 271 270 270 271 272 272 270 268 268 268 268 266 263 263 263 263 261 261 260 261 264 265
236 235 236 238 237 234 232 231 230 229 230 233 236 239 240 241 241 240 238 238 240 242 244 246 249 252 255 259 262 265 268 270 271 272 272 272 272 272 273 273 273 272 270 270 270 270 272 273 272 272 272 273 272 270 270 269 267 266 265 264 264 265 267
238 235 234 236 237 235 233 232 231 230 230 231 233 236 239 241 242 241 240 242 244 246 249 252 254 257 260 263 266 268 269 269 269 269 269 269 269 270 270 270 270 268 267 268 270 271 273 275 275 273 273 274 273 270 268 268 266 265 265 267 268 269 268
238 236 234 234 236 235 234 233 231 231 231 231 232 234 236 239 241 243 245 247 249 252 255 257 259 261 264 266 267 268 268 268 268 268 267 267 267 268 269 269 270 269 269 271 272 273 275 276 275 274 274 275 274 271 267 265 263 261 260 261 264 267 267
236 236 235 235 235 235 235 233 232 232 232 233 234 236 238 240 242 245 248 251 254 256 258 260 262 264 266 267 267 266 266 266 266 267 268 268 268 269 269 270 271 272 272 273 273 273 274 274 274 273 273 273 273 272 270 268 266 264 262 261 260 260 262
236 236 236 235 236 237 237 236 236 235 235 236 237 239 241 243 245 248 250 253 255 258 260 262 263 265 267 267 266 266 266 267 267 268 269 270 271 271 270 270 270 270 271 272 273 274 274 274 274 274 273 271 270 269 268 269 269 270 268 265 261 258 257
237 236 236 236 237 238 240 242 242 241 241 241 242 243 245 246 248 250 253 255 256 258 261 262 264 265 265 265 266 267 268 270 270 270 270 270 270 270 269 269 270 270 271 272 273 273 274 274 275 275 273 271 269 267 266 266 267 268 267 266 263 261 258
237 235 235 236 237 239 242 245 247 248 249 249 249 249 250 251 252 253 253 254 256 257 259 260 261 263 264 266 268 269 271 272 272 271 269 268 267 267 267 268 269 271 272 273 274 275 275 275 276 275 273 272 271 270 267 264 263 262 263 263 263 262 260
235 235 234 235 236 238 241 244 246 249 252 253 255 256 257 258 258 257 257 257 258 258 259 260 262 264 266 268 269 270 272 273 272 272 271 269 268 268 269 270 271 273 275 276 277 278 278 278 279 278 277 277 275 273 270 267 264 261 259 259 260 260 259
Height
5881 5882 5883 5884 5885 5886 5888 5889 5891 5892 5894 5896 5898 5899 5900 5901 5902 5903 5905 5906 5907 5908 5910 5911 5913 5914 5916 5917 5918 5919 5920 5921 5923 5924 5925 5925 5926 5927 5928 5929 5929 5929 5930 5930 5931 5931 5932 5932 5932 5932 5932 5933 5933 5933 5933 5933 5933 5933 5933 5932 5931 5931 5930
5880 5881 5882 5884 5885 5886 5887 5888 5889 5891 5892 5894 5895 5897 5899 5900 5901 5902 5903 5904 5905 5906 5908 5909 5911 5912 5913 5914 5916 5917 5918 5919 5921 5922 5923 5923 5924 5925 5926 5927 5927 5928 5928 5928 5929 5930 5930 5930 5931 5931 5931 5931 5932 5932 5932 5932 5932 5932 5932 5931 5931 5930 5929
5879 5880 5882 5883 5884 5886 5887 5887 5888 5889 5891 5892 5894 5895 5897 5899 5900 5900 5901 5903 5904 5905 5906 5908 5909 5910 5912 5912 5913 5915 5916 5917 5918 5920 5921 5921 5922 5922 5923 5924 5925 5925 5926 5926 5927 5928 5928 5929 5929 5930 5930 5930 5930 5931 5931 5931 5931 5931 5931 5930 5930 5929 5929
5878 5879 5880 5881 5883 5884 5885 5886 5886 5887 5888 5890 5892 5893 5895 5896 5898 5899 5900 5901 5902 5903 5905 5906 5907 5908 5909 5911 5912 5912 5914 5915 5916 5917 5918 5919 5919 5920 5921 5921 5922 5923 5924 5924 5925 5926 5926 5927 5928 5928 5928 5928 5929 5929 5930 5930 5930 5930 5930 5930 5929 5929 5928
5877 5878 5879 5880 5882 5883 5884 5885 5886 5887 5887 5888 5889 5891 5893 5894 5895 5896 5898 5899 5900 5901 5903 5904 5905 5906 5908 5909 5910 5911 5911 5912 5913 5914 5915 5916 5917 5918 5919 5919 5919 5920 5921 5922 5923 5924 5924 5925 5926 5926 5926 5927 5927 5928 5928 5928 5928 5928 5929 5929 5928 5928 5927
5874 5876 5877 5878 5880 5882 5883 5884 5885 5886 5886 5887 5888 5889 5890 5891 5893 5894 5895 5896 5898 5899 5900 5902 5903 5905 5906 5907 5908 5909 5909 5910 5911 5912 5913 5914 5914 5915 5916 5917 5917 5918 5918 5919 5920 5922 5922 5923 5924 5924 5925 5925 5925 5926 5927 5927 5927 5927 5927 5928 5927 5927 5926
5872 5874 5875 5876 5878 5880 5882 5883 5883 5884 5885 5885 5886 5886 5887 5888 5890 5892 5893 5894 5896 5897 5899 5900 5901 5903 5904 5905 5906 5907 5907 5908 5909 5910 5910 5911 5912 5913 5914 5914 5915 5915 5916 5917 5918 5919 5920 5921 5921 5922 5923 5923 5923 5924 5925 5925 5925 5925 5926 5926 5926 5926 5925
5869 5871 5872 5874 5876 5878 5880 5881 5881 5882 5882 5882 5883 5883 5884 5886 5887 5889 5890 5892 5893 5895 5897 5898 5899 5900 5901 5902 5903 5904 5905 5906 5906 5907 5908 5909 5910 5911 5911 5912 5912 5913 5913 5915 5916 5917 5918 5919 5919 5920 5920 5921 5921 5922 5923 5923 5924 5924 5924 5925 5925 5925 5925
5866 5868 5870 5871 5873 5874 5876 5877 5878 5878 5878 5878 5879 5881 5882 5883 5885 5886 5888 5890 5891 5893 5895 5896 5897 5898 5898 5899 5901 5902 5902 5903 5904 5905 5906 5907 5908 5908 5909 5909 5910 5910 5912 5913 5914 5915 5916 5916 5917 5918 5918 5919 5919 5920 5920 5921 5921 5922 5922 5923 5923 5923 5923
5863 5865 5866 5868 5869 5871 5873 5874 5874 5874 5874 5875 5876 5878 5879 5880 5882 5883 5885 5886 5888 5891 5892 5894 5895 5895 5896 5897 5898 5899 5900 5901 5902 5903 5903 5904 5905 5905 5906 5907 5907 5908 5909 5910 5911 5913 5914 5914 5914 5915 5916 5916 5917 5917 5918 5919 5919 5920 5920 5921 5921 5922 5921
5859 5861 5863 5865 5867 5868 5870 5871 5871 5871 5872 5873 5875 5876 5877 5878 5879 5880 5882 5884 5886 5888 5889 5891 5892 5893 5894 5895 5896 5897 5898 5899 5899 5900 5901 5901 5902 5902 5903 5904 5905 5906 5907 5908 5909 5910 5911 5911 5912 5913 5913 5914 5914 5915 5916 5916 5917 5917 5918 5918 5919 5919 5919
5856 5858 5860 5862 5864 5865 5867 5868 5869 5869 5869 5871 5873 5874 5875 5876 5877 5878 5879 5881 5883 5885 5886 5888 5889 5891 5892 5893 5894 5895 5896 5896 5897 5897 5898 5898 5899 5899 5900 5901 5902 5903 5904 5905 5906 5907 5907 5908 5909 5910 5911 5911 5911 5912 5913 5914 5914 5915 5915 5916 5916 5917 5917
5851 5854 5856 5858 5860 5862 5864 5866 5867 5867 5867 5868 5871 5872 5873 5874 5875 5876 5877 5879 5880 5882 5883 5885 5886 5888 5889 5891 5892 5893 5893 5894 5894 5895 5895 5896 5896 5897 5898 5899 5900 5901 5902 5902 5903 5903 5904 5905 5906 5907 5908 5908 5909 5910 5910 5911 5912 5912 5912 5913 5914 5914 5914
5847 5849 5851 5854 5857 5859 5862 5863 5865 5866 5866 5866 5869 5870 5871 5872 5873 5873 5875 5876 5877 5878 5880 5882 5884 5885 5887 5888 5889 5890 5891 5891 5892 5892 5893 5894 5894 5895 5896 5896 5897 5898 5899 5900 5900 5901 5901 5902 5903 5904 5905 5906 5907 5907 5907 5908 5909 5910 5910 5911 5911 5911 5911
5843 5845 5847 5850 5853 5856 5858 5860 5862 5863 5864 5864 5866 5868 5869 5869 5870 5871 5872 5874 5875 5876 5878 5879 5881 5883 5884 5886 5887 5888 5888 5889 5889 5890 5891 5892 5892 5893 5894 5894 5895 5896 5896 5897 5898 5898 5899 5899 5900 5901 5902 5903 5904 5905 5905 5905 5906 5907 5908 5908 5908 5908 5908
5839 5841 5843 5846 5849 5852 5855 5857 5859 5860 5861 5862 5863 5865 5867 5867 5868 5869 5870 5872 5873 5874 5875 5877 5879 5881 5882 5884 5885 5885 5885 5886 5887 5888 5889 5890 5890 5891 5892 5892 5893 5894 5894 5895 5895 5896 5896 5897 5897 5898 5899 5900 5901 5902 5902 5903 5904 5904 5905 5905 5905 5904 5905
5835 5837 5840 5842 5845 5848 5850 5853 5855 5857 5858 5859 5861 5863 5864 5865 5866 5867 5868 5869 5870 5872 5873 5875 5877 5879 5880 5882 5882 5882 5883 5884 5885 5886 5886 5887 5888 5888 5889 5890 5891 5892 5893 5893 5894 5894 5894 5895 5895 5896 5896 5897 5898 5899 5900 5900 5901 5901 5901 5901 5901 5901 5901
5832 5834 5837 5839 5841 5843 5846 5849 5852 5854 5855 5857 5859 5860 5862 5863 5864 5865 5866 5867 5869 5870 5871 5872 5874 5876 5878 5879 5879 5880 5880 5881 5883 5883 5884 5885 5886 5887 5887 5888 5889 5890 5891 5892 5892 5892 5893 5893 5893 5893 5894 5894 5895 5896 5897 5897 5897 5897 5897 5898 5898 5898 5898
5830 5831 5833 5835 5837 5839 5842 5845 5849 5851 5852 5854 5856 5858 5859 5860 5861 5862 5864 5865 5866 5867 5868 5870 5872 5873 5875 5876 5877 5878 5879 5879 5880 5881 5882 5883 5884 5885 5885 5886 5887 5888 5889 5890 5890 5890 5891 5891 5891 5891 5891 5892 5892 5892 5893 5894 5894 5893 5894 5894 5894 5894 5894
5827 5828 5830 5831 5833 5835 5838 5841 5845 5847 5849 5851 5853 5855 5855 5856 5857 5859 5860 5861 5862 5863 5865 5867 5868 5870 5872 5873 5874 5875 5876 5877 5878 5879 5880 5881 5882 5882 5883 5884 5885 5886 5887 5887 5887 5888 5889 5889 5889 5889 5889 5889 5889 5889 5890 5890 5890 5890 5890 5890 5890 5890 5890
5823 5825 5826 5828 5829 5831 5834 5838 5841 5843 5846 5848 5850 5851 5852 5853 5854 5855 5856 5857 5858 5860 5861 5863 5865 5867 5868 5870 5871 5872 5873 5874 5876 5877 5878 5878 5879 5879 5880 5881 5882 5883 5884 5884 5885 5885 5886 5886 5887 5887 5887 5887 5887 5887 5887 5887 5887 5887 5886 5886 5886 5886 5885
5819 5821 5823 5825 5826 5828 5831 5834 5837 5840 5842 5844 5846 5848 5849 5850 5851 5852 5853 5854 5855 5857 5858 5860 5862 5864 5865 5866 5868 5869 5870 5872 5873 5874 5875 5875 5875 5876 5877 5878 5879 5880 5880 5881 5881 5882 5883 5883 5884 5884 5884 5884 5884 5884 5884 5884 5884 5884 5883 5883 5882 5882 5881
5815 5818 5820 5822 5824 5825 5827 5830 5833 5836 5838 5841 5843 5845 5846 5847 5848 5849 5851 5852 5853 5854 5856 5858 5859 5861 5862 5863 5865 5866 5867 5868 5869 5870 5871 5871 5872 5873 5874 5875 5876 5876 5877 5877 5878 5878 5879 5880 5880 5881 5881 5880 5880 5881 5881 5881 5880 5880 5880 5879 5878 5877 5877
5812 5815 5817 5819 5821 5822 5824 5826 5829 5832 5835 5837 5840 5841 5843 5844 5845 5846 5848 5849 5850 5852 5853 5855 5857 5858 5859 5860 5862 5863 5864 5865 5866 5866 5867 5867 5868 5869 5870 5871 5871 5872 5872 5873 5873 5874 5875 5875 5876 5876 5876 5877 5877 5877 5877 5876 5876 5877 5877 5876 5874 5873 5873
5808 5811 5814 5816 5818 5819 5821 5823 5825 5828 5831 5834 5836 5838 5839 5841 5842 5843 5845 5847 5848 5848 5850 5852 5854 5856 5856 5857 5858 5859 5860 5861 5861 5862 5862 5863 5864 5865 5866 5866 5866 5867 5867 5867 5868 5869 5870 5870 5871 5871 5872 5872 5872 5872 5872 5872 5872 5873 5873 5872 5871 5870 5869
5805 5807 5810 5812 5814 5816 5818 5819 5821 5824 5827 5830 5832 5834 5836 5837 5839 5841 5843 5844 5845 5846 5848 5849 5850 5851 5851 5852 5853 5854 5856 5856 5857 5858 5859 5860 5861 5861 5861 5862 5862 5862 5862 5862 5863 5864 5864 5864 5865 5866 5866 5867 5867 5867 5867 5867 5867 5868 5869 5868 5867 5865 5864
5802 5803 5806 5808 5810 5812 5814 5816 5818 5820 5823 5825 5828 5830 5831 5833 5836 5838 5839 5840 5842 5843 5844 5845 5845 5846 5846 5847 5848 5850 5851 5852 5852 5854 5855 5855 5856 5856 5857 5857 5857 5857 5857 5857 5857 5858 5858 5858 5859 5860 5860 5861 5860 5861 5861 5861 5861 5863 5864 5864 5862 5861 5859
5799 5800 5802 5804 5807 5809 5811 5812 5814 5816 5819 5821 5823 5825 5827 5829 5832 5834 5835 5836 5838 5839 5840 5841 5842 5842 5843 5843 5844 5845 5846 5847 5848 5849 5850 5850 5851 5851 5852 5852 5852 5852 5852 5852 5852 5852 5852 5852 5853 5853 5853 5853 5853 5854 5855 5855 5856 5857 5858 5858 5857 5855 5854
5795 5797 5798 5800 5802 5805 5807 5809 5810 5812 5814 5816 5818 5821 5823 5825 5828 5829 5831 5832 5833 5834 5835 5837 5838 5839 5839 5840 5840 5841 5842 5842 5843 5844 5844 5845 5845 5846 5846 5846 5846 5846 5846 5846 5846 5846 5846 5846 5846 5846 5846 5846 5847 5848 5848 5848 5849 5851 5851 5851 5851 5849 5847
5790 5793 5794 5796 5798 5800 5802 5804 5806 5808 5810 5812 5814 5816 5819 5821 5823 5824 5826 5827 5828 5830 5831 5832 5833 5834 5835 5836 5837 5837 5837 5838 5838 5839 5839 5840 5840 5840 5840 5840 5840 5840 5840 5840 5839 5839 5839 5839 5839 5839 5840 5840 5840 5841 5841 5841 5842 5843 5843 5843 5844 5842 5841
5786 5788 5790 5792 5794 5796 5798 5800 5802 5804 5806 5808 5810 5812 5814 5815 5817 5819 5821 5822 5823 5825 5826 5827 5828 5829 5830 5831 5832 5832 5832 5833 5833 5833 5834 5834 5834 5834 5834 5834 5834 5834 5833 5833 5832 5832 5832 5833 5833 5833 5833 5833 5833 5834 5834 5834 5835 5835 5834 5835 5835 5835 5835
5781 5783 5786 5788 5790 5792 5794 5796 5798 5800 5802 5804 5806 5808 5809 5811 5813 5814 5816 5817 5818 5820 5821 5822 5823 5824 5825 5825 5826 5826 5826 5826 5827 5827 5827 5827 5827 5827 5827 5827 5827 5827 5827 5826 5826 5826 5826 5826 5825 5825 5825 5825 5825 5826 5825 5824 5826 5827 5827 5827 5827 5827 5827
5776 5778 5781 5783 5786 5788 5790 5791 5793 5795 5797 5799 5801 5803 5805 5807 5808 5809 5811 5812 5813 5815 5816 5817 5818 5818 5819 5819 5820 5820 5820 5820 5821 5821 5820 5820 5820 5820 5820 5820 5819 5819 5819 5819 5820 5819 5819 5818 5818 5817 5817 5817 5817 5816 5815 5815 5817 5818 5819 5819 5819 5819 5819
5771 5774 5776 5779 5781 5783 5785 5787 5789 5791 5793 5795 5797 5798 5800 5802 5803 5805 5806 5807 5808 5809 5810 5811 5812 5813 5813 5813 5814 5814 5814 5814 5814 5814 5814 5813 5813 5813 5812 5812 5811 5810 5810 5811 5811 5810 5810 5809 5809 5808 5809 5808 5807 5806 5805 5805 5806 5808 5810 5811 5811 5810 5809
5767 5769 5771 5774 5776 5778 5780 5782 5784 5786 5788 5790 5792 5794 5796 5797 5799 5800 5802 5803 5803 5804 5805 5805 5806 5806 5807 5807 5807 5808 5808 5808 5807 5807 5807 5806 5806 5805 5804 5804 5802 5801 5801 5802 5802 5800 5800 5799 5798 5799 5799 5798 5796 5795 5794 5794 5795 5798 5801 5802 5801 5799 5798
5762 5765 5767 5769 5772 5774 5776 5778 5780 5782 5784 5786 5788 5789 5791 5793 5794 5795 5796 5797 5798 5798 5799 5799 5800 5800 5801 5801 5801 5801 5801 5801 5801 5800 5800 5799 5799 5798 5797 5796 5795 5793 5793 5795 5795 5792 5791 5790 5789 5790 5788 5786 5784 5785 5784 5785 5787 5788 5788 5789 5789 5787 5785
5758 5761 5763 5766 5768 5770 5772 5774 5776 5778 5779 5781 5782 5784 5786 5787 5788 5789 5790 5791 5791 5792 5792 5793 5793 5794 5794 5795 5795 5795 5794 5794 5793 5793 5793 5792 5791 5790 5790 5789 5788 5786 5786 5786 5786 5785 5782 5781 5780 5779 5777 5774 5772 5772 5772 5774 5776 5776 5775 5776 5778 5776 5774
5754 5757 5760 5762 5764 5766 5768 5770 5772 5773 5775 5776 5777 5778 5779 5780 5782 5783 5783 5784 5785 5785 5786 5787 5787 5788 5788 5788 5788 5788 5787 5787 5786 5786 5785 5785 5784 5783 5781 5781 5781 5780 5778 5776 5776 5775 5773 5771 5769 5767 5764 5762 5759 5757 5757 5759 5762 5765 5765 5765 5766 5765 5764